Regional Weather Roundup
Issued by NWS Wakefield, VA

Home | Current Version | Previous Version | Text Only | Print | Product List | Glossary On
Versions: 1 2 3 4 5 6 7 8 9 10 11 12 13 14 15 16 17 18 19 20 21 22 23 24 25 26 27 28 29 30 31 32 33 34 35 36 37 38 39 40 41 42 43 44 45 46 47 48 49 50
522
ASUS41 KAKQ 111714
RWRAKQ

REGIONAL WEATHER ROUNDUP
NATIONAL WEATHER SERVICE WAKEFIELD VA
1200 PM EST THU FEB 11 2016

Note: "fair" indicates few or no clouds below 12,000 feet with no
significant weather and/or obstructions to visibility. * = Denotes
station may not report precipitation (e.g., rain,snow,etc.),
thunder or fog.

VAZ042-051-052>054-056-111800-
NORTHERN VIRGINIA

CITY           SKY/WX    TMP DP  RH WIND       PRES   REMARKS
WASH NATIONAL  FAIR      28   1  31 W20G32    30.15S WCI  15
DULLES         FAIR      24   1  36 NW21      30.12S WCI   9
FORT BELVOIR   FAIR      28  -1  28 W13G24    30.14F WCI  17
QUANTICO       FAIR      30   2  30 NW17G25   30.16F WCI  18
FREDERICKSBRG* FAIR      29   5  35 W16G22    30.14F WCI  17
STAFFORD*      FAIR      28   0  30 W8G16     30.18F
WARRENTON      PTSUNNY   30   7  37 W8        30.13S
CULPEPER*      FAIR      28   1  31 W14       30.14F WCI  17
MANASSAS*      SUNNY     28   5  37 NW18G24   30.14S WCI  16
LEESBURG*      PTSUNNY   28  10  47 NW14G21   30.13S WCI  17
WINCHESTER     FAIR      25   3  39 W20G29    30.10F WCI  11
FRONT ROYAL*   FAIR      25   1  36 W20G31    30.10S WCI  11
LURAY*         FAIR      27   1  33 NW6       30.10R
$$

VAZ048-049-060>072-079>083-111800-
CENTRAL AND SOUTH CENTRAL VIRGINIA

CITY           SKY/WX    TMP DP  RH WIND       PRES   REMARKS
RICHMOND       FAIR      28   2  32 W17G25    30.16F WCI  16
CHESTERFIELD*  FAIR      30   0  27 W9G18     30.17F
PETERSBURG*    FAIR      32  -6  19 W14       30.17F WCI  22
HANOVER        FAIR      28   1  31 W9G23     30.17F
TAPPAHANNOCK*  FAIR      30   2  30 W16       30.15F WCI  18
QUINTON*       FAIR      29   2  31 W14G20    30.16S WCI  18
CHARLOTTSVILLE FAIR      28  -3  26 NW13G21   30.12F WCI  17
GORDONSVILLE*  FAIR      28   0  29 NW10G17   30.13F WCI  19
ORANGE*        FAIR      30   1  29 S13       30.15F WCI  20
LOUISA*          N/A     30   1  29 W14G20    30.12F WCI  20
BUMPASS*       FAIR      28   2  32 W7        30.14F
FARMVILLE*     FAIR      32  -1  24 SW10G17   30.14F WCI  24
CREWE*         FAIR      30   3  31 W14G23    30.15F WCI  20
FORT PICKETT*  NOT AVBL
CHASE CITY*    FAIR      30   0  27 NW12G22   30.17S WCI  21
CLARKSVILLE*   FAIR      32   5  32 W9G18     30.18F
SOUTH HILL*    FAIR      30   5  34 W13G18    30.23F WCI  20
LAWRENCEVILLE* FAIR      31   4  31 W8        30.16F
EMPORIA*       FAIR      32   5  32 SW14G22   30.19F WCI  22
$$

VAZ088>098-111800-
SOUTHEAST VIRGINIA

CITY           SKY/WX    TMP DP  RH WIND       PRES   REMARKS
NORFOLK        FAIR      32   3  29 W9        30.14F
VIRGINIA BEACH FAIR      37   2  22 W20G30    30.13F
NORFOLK NAVAL  FAIR      32   4  30 W15G26    30.16S WCI  22
WEST POINT*    FAIR      30  -1  26 W14G23    30.17F WCI  19
SALUDA*        FAIR      29   2  31 W9G16     30.14S
NEWPORT NEWS   FAIR      30   5  34 W13G25    30.15S WCI  20
LANGLEY AFB    SUNNY     31   3  30 NW18G25   30.13F WCI  19
FORT EUSTIS    FAIR      31   4  32 NW20G28   30.13F WCI  19
WILLIAMSBURG*  FAIR      34   7  32 W10G21    30.16F
HR EXEC AP*    FAIR      34   7  32 W10G18    30.17F
FRANKLIN*      FAIR      31   3  30 W14G23    30.17F WCI  21
US460-WAKEFLD  FAIR      32   2  27 W10G20    30.16F WCI  24
$$

VAZ020-022-025-037-045-111800-
WEST CENTRAL AND SOUTHWEST VIRGINIA

CITY           SKY/WX    TMP DP  RH WIND       PRES   REMARKS
STAUNTON*      FAIR      29   1  29 NW12G18   30.11F WCI  19
WAYNESBORO*    FAIR      24  -4  29 W7G16     30.08S
HOT SPRINGS VA FAIR      11  -1  58 W20G28    29.89R WCI  -7
LYNCHBURG      FAIR      28   1  31 W12G18    30.15S WCI  18
DANVILLE       FAIR      32   4  30 W12G17    30.19F WCI  23
SOUTH BOSTON*  FAIR      32   1  26 NW14G21   30.19F WCI  22
MARTINSVILLE   FAIR      30   0  28 W7        30.19S
ROANOKE        FAIR      26   1  34 NW17G30   30.17S WCI  13
BLACKSBURG     FAIR      22   7  51 NW17G24   30.12S WCI   8
DUBLIN*        FAIR      24   8  48 W16G22    30.12S WCI  11
MARION*        FAIR      22   5  49 NW15G23   30.10S WCI   8
HILLSVILLE*    FAIR      20   4  48 NW14G24   30.04S WCI   7
RICHLANDS*     FAIR      19   5  55 W8        30.10F
WISE*          FAIR      23   1  39 NW8       30.12F
ABINGDON*      FAIR      26  10  51 N5        30.15F
$$

MDZ021>025-VAZ099-100-111800-
SOUTHERN MARYLAND AND THE DELMARVA PENINSULA

CITY           SKY/WX    TMP DP  RH WIND       PRES   REMARKS
PATUXENT RIVER MOSUNNY   29   4  34 W15G26    30.12F WCI  18
BAY BRIDGE APT   N/A     27   3  36 W15G26    30.12S WCI  15
LEONARDTOWN    PTSUNNY   28   3  34 W13       30.13  WCI  18
DOVER          MOSUNNY   25   7  46 W25G32    30.05F WCI   9
GEORGETOWN     FLURRIES  26   1  34 W17G29    30.08F WCI  13
EASTON         PTSUNNY   27   5  39 NW20G29   30.14F WCI  13
CAMBRIDGE      MOSUNNY   28   3  34 NW12G22   30.11F WCI  18
SALISBURY      MOSUNNY   29   5  36 W16G26    30.10S WCI  17
OCEAN CITY     MOSUNNY   28   3  34 W20G28    30.08F WCI  15
WALLOPS ISLAND PTSUNNY   27   8  44 W18G30    30.11S WCI  14
ACCOMACK*      PTSUNNY   28   3  34 W16G22    30.13S WCI  17
$$

NCZ012>017-030>032-111800-
NORTH CENTRAL AND EASTERN NORTH CAROLINA

CITY           SKY/WX    TMP DP  RH WIND       PRES   REMARKS
ROANOKE RAPIDS FAIR      32   7  34 NW9G18    30.19F
RALEIGH        SUNNY     35   5  28 W13G21    30.20F
ELIZABETH CITY SUNNY     33   8  35 W17       30.16F WCI  22
AHOSKIE*       SUNNY     32   6  33 NW5       30.18F
EDENTON*       SUNNY     34   6  30 NW10G24   30.18F
CURRITUCK*     SUNNY     32   8  36 W10G20    30.16F WCI  24
KILL DEVIL HLS SUNNY     34   8  34 W14G22    30.14F WCI  24
MANTEO         SUNNY     32  12  43 NW13G20   30.16F WCI  23
CAPE HATTERAS  SUNNY     36  10  34 NW14G25   30.17F
TARBORO*       FAIR      35   8  31 NW15      30.20F
GOLDSBORO      SUNNY     37   5  25 W13G18    30.19F
WASHINGTON     SUNNY     35   8  32 W8G22     30.19F
GREENVILLE     SUNNY     34   7  32 NW10G17   30.21F
NEW BERN       SUNNY     37   8  30 NW9G20    30.21F
WILMINGTON     SUNNY     40  11  30 NW12      30.23F
$$

VAZ048-111800-
ELSEWHERE

CITY           SKY/WX    TMP DP  RH WIND       PRES   REMARKS
HARRISBURG PA  PTSUNNY   22   6  50 W22G29    30.05S WCI   6
BALTIMORE      PTSUNNY   25   2  37 NW17G26   30.11S WCI  12
ANNAPOLIS      MOSUNNY   26   3  37 W20G31    30.11F WCI  12
ANDREWS AFB    FAIR      26   0  32 W22G30    30.11R WCI  12
PHILADELPHIA   PTSUNNY   25  -2  31 W24G30    30.03F WCI   9
HENDERSON NC   SUNNY     32   3  28 W13       30.19S WCI  23
GREENSBORO     MOSUNNY   33   3  28 NW14      30.17F WCI  23
ROCKY MOUNT    SUNNY     35   9  33 W15       30.20F
$$

VAZ100-111800-
MARINE

STATION/POSITION TIME  TEMP    WIND        PRES    WAVE   SWELL
                       AIR SEA DIR/SP/G            HT/PER HT/PER
                 (UTC) (F)     (DEG/KT/KT) (MB)    (FT/S) (FT/S)
BRANDYWINE LGT   1600          300/ 27/ 33 1018.0R
CAPE MAY NJ      1600      38  300/ 24/ 32 1017.5R
LEWES DE         1600      38  300/ 24/ 30 1018.4R
15NM E FENWICK I 1650   27 43              1017.6F   5/ 5
OCEAN-CITY-INLET 1600      41  320/ 18/ 28 1018.1R
WACHAPREAGUE VA  1600      40  280/  5/ 12 1020.3R
THOMAS POINT MD  1700   24 38  300/ 23/ 25 1020.2F
GOOSES REEF MD   1700   27 38  310/ 19/ 23 1020.8F   2/ 3
COVE POINT MD    1600          320/ 16/ 21 1020.8F
SOLOMONS ISLAND  1600      40  300/ 13/ 18   N/A
BISHOPS HEAD MD  1600      31  290/ 17/ 22 1019.7S
PINEY POINT MD   1600          290/ 15/ 20   N/A
POTOMAC MD       1700   27 39  300/ 16/ 21 1019.4F   2/ 3
CAMBRIDGE MD     1600      38  290/ 13/ 22 1019.4R
LEWISETTA VA     1606   26 39  290/ 17/ 22 1020.4F
RAPPAHANNOCK LGT 1600          290/ 15/ 20 1020.6F
STINGRAY PT      1700   28 41  310/ 16/ 19 1020.4F   1/ 3
YORK RVR RNG VA  1600          310/ 17/ 23 1020.2F
YORKTOWN VA      1600      41  290/ 19/ 24 1020.6F
JAMESTOWN VA     1700   28 42  290/ 17/ 23   N/A     1/ 3
DOMINION TERM VA 1600          300/ 18/ 21 1020.7F
KIPTOPEKE VA     1600      40  310/ 19/ 22   N/A
CHES BAY BRIDGE  1600      41  260/ 17/ 22 1020.4F
CAPE HENRY VA    1600          270/ 18/ 22   N/A
CHESAPEAKE LGHT  1600   29     300/ 19/ 21 1021.4F
WILLOUBY STN VA  1600          290/ 21/ 25 1021.5F
CAPE HENRY BUOY  1628      43                N/A     3/ 5
1ST LANDING BUOY 1700      41                N/A     2/ 3
CAPE CHARLES BUO 1626      43                N/A     3/ 5   2/13
OFFSHORE WE BUOY 1621      46                N/A     5/ 5   2/13
64NM E OF VA BCH 1650   30 49  290/ 21/ 29 1019.2S   7/ 7   2/11
DUCK PIER NC     1600          290/ 14/ 19 1020.7R
44100 DUCK FRF   1624      46                N/A     4/ 5   2/13
44056 DUCK FRF   1641      44                N/A     3/13   2/13
OREGON INLET NC  1600      40  300/ 17/ 22 1021.2R
HATTERAS NC      1600      44  310/ 23/ 27 1021.4R
DIAMOND SHLS NC  1650   36 63  300/ 23/ 29 1021.2F  C1F1C2F2C3F3C4F4C5F5C6F6C7F7C8M1C9!



USA.gov is the U.S. government's official web portal to all federal, state and local government web resources and services.